Bookmark and Share
Track history (hours):
 

San Gennaro

Last reported at 2014-Apr-19 13:04 UTC. Time now 2014-Apr-19 14:34 UTC.
Position N 40°51' E 014°16'.

Length 27 m; draft 5.2 m.

Type: Tug. MMSI: 247295700.

NotesDate/timePositionNaut miles runAvg speedWind from/ knotsBaromVisibWave heightAir tempDewpointWater temp
2014-Apr-19 13:04N 40°51' E 014°16'0 0.2
2014-Apr-19 10:27N 40°50' E 014°15'1 0.4
2014-Apr-19 09:06N 40°51' E 014°16'5 8.5
2014-Apr-19 08:33N 40°47' E 014°20'6 5.4
2014-Apr-19 07:30N 40°45' E 014°27'7 6.8
2014-Apr-19 06:32N 40°48' E 014°19'4 0.5
2014-Apr-18 23:07N 40°51' E 014°16'1 2.7
2014-Apr-18 22:33N 40°50' E 014°18'1 0.1
2014-Apr-18 12:30N 40°51' E 014°16'1 1.4
2014-Apr-18 11:30N 40°50' E 014°18'1 1.1
2014-Apr-18 10:17N 40°51' E 014°16'0 0.0
2014-Apr-18 09:28N 40°51' E 014°16'1 0.1
2014-Apr-17 21:22N 40°50' E 014°17'0 0.3
2014-Apr-17 20:33N 40°50' E 014°18'1 1.0
2014-Apr-17 19:06N 40°51' E 014°16'1 0.2
2014-Apr-17 11:33N 40°50' E 014°18'1 0.2
2014-Apr-17 06:33N 40°50' E 014°17'1 0.1
2014-Apr-16 16:28N 40°51' E 014°16'1 0.1
2014-Apr-15 23:04N 40°50' E 014°17'0 0.4
2014-Apr-15 22:05N 40°50' E 014°17'0 0.5
2014-Apr-15 21:27N 40°50' E 014°17'1 1.0
2014-Apr-15 20:26N 40°51' E 014°16'0 0.0
2014-Apr-15 11:30N 40°51' E 014°16'0 0.0
2014-Apr-15 07:30N 40°51' E 014°16'0 0.3
2014-Apr-15 06:33N 40°50' E 014°16'1 0.3
2014-Apr-15 02:34N 40°50' E 014°17'1 0.1
2014-Apr-14 10:30N 40°51' E 014°16'0 0.0
2014-Apr-13 21:05N 40°51' E 014°16'0 0.0
2014-Apr-12 13:11N 40°51' E 014°16'0 0.0
2014-Apr-12 12:29N 40°51' E 014°16'0 0.0
2014-Apr-12 11:29N 40°51' E 014°16'0 0.0
2014-Apr-12 10:29N 40°51' E 014°16'1 0.6
2014-Apr-12 08:25N 40°50' E 014°17'0 0.0
2014-Apr-11 20:31N 40°50' E 014°18'1 0.1
2014-Apr-11 06:15N 40°50' E 014°16'1 1.7
2014-Apr-11 05:31N 40°50' E 014°18'1 0.1
2014-Apr-10 20:33N 40°50' E 014°16'10 8.0
2014-Apr-10 19:20N 40°45' E 014°27'6 8.3
2014-Apr-10 18:33N 40°48' E 014°19'4 0.2
2014-Apr-09 20:26N 40°51' E 014°16'1010.8
2014-Apr-09 19:32N 40°45' E 014°26'5 5.1
2014-Apr-09 18:33N 40°47' E 014°20'4 1.9
2014-Apr-09 16:19N 40°50' E 014°16'0 0.2
2014-Apr-09 14:16N 40°50' E 014°16'1 1.8
2014-Apr-09 13:32N 40°50' E 014°18'  

Dump ship's entire track history

sailing weather and tide predictions

San Gennaro — IIOT2 — position and weather